Location: *
(31.2983°S, 151.4094°E)
Time: 02:05:25
(UTC+00:00)

Cosmos 2297 - Pass Details

Date: 22 November 2019
Orbit: 835 x 860 km, 71.0° (Epoch: 08 December)

Event Time Altitude Azimuth Distance (km) Brightness Sun altitude
Exits shadow 15:55:22 10° 235° (SW) 2,466 6.1 -29.2°
Maximum altitude 15:55:23 10° 235° (SW) 2,466 6.1 -29.2°
Drops below altitude 10° 15:55:31 10° 233° (SW) 2,467 6.1 -29.2°
Sets 16:01:26 0° 185° (S) 3,412 7.5 -28.4°
